Probability
1 1 0 0 0 0 0 0 0 0 0 0 0 0 0 0 0 0 0 0 0 0 0 0 0 0 0 0 0 0 0 0 0 0 0 0 1 1
1 0 0 0 0 0 0 0 0 0 0 0 0 0 0 0 0 0 0 0 0 0 0 0 0 0 0 0 0 0 0 0 0 0 0 0 0 1
0 0 0 0 0 0 0 0 0 0 0 0 0 0 0 0 0 0 0 0 0 0 0 0 0 0 0 0 0 0 0 0 0 0 0 0 0 0
0 0 0 0 0 0 0 0 0 0 0 0 0 0 0 0 0 0 0 0 0 0 0 0 0 0 0 0 0 0 0 0 0 0 0 0 0 0
0 0 0 0 0 0 0 0 0 0 0 0 0 0 0 0 0 0 0 0 0 0 0 0 0 0 0 0 0 0 0 0 0 0 0 0 0 0
0 0 0 0 0 0 0 0 0 0 0 0 0 0 0 0 0 0 0 0 0 0 0 0 0 0 0 0 0 0 0 0 0 0 0 0 0 0
0 0 0 0 0 0 0 0 0 0 0 0 0 0 0 0 0 0 0 0 0 0 0 0 0 0 0 0 0 0 0 0 0 0 0 0 0 0
0 0 0 0 0 0 0 0 0 0 0 0 0 0 0 0 0 0 0 0 0 0 0 0 0 0 0 0 0 0 0 0 0 0 0 0 0 0
0 0 0 0 0 0 0 0 0 0 0 0 0 0 0 0 0 0 0 0 0 0 0 0 0 0 0 0 0 0 0 0 0 0 0 0 0 0
0 0 0 0 0 0 0 0 0 0 0 0 0 0 0 0 0 0 0 0 0 0 0 0 0 0 0 0 0 0 0 0 0 0 0 0 0 0
0 0 0 0 0 0 0 0 0 0 0 0 0 0 0 0 0 0 0 0 0 0 0 0 0 0 0 0 0 0 0 0 0 0 0 0 0 0
0 0 0 0 0 0 0 0 0 0 0 0 0 0 0 0 0 0 0 0 0 0 0 0 0 0 0 0 0 0 0 0 0 0 0 0 0 0
0 0 0 0 0 0 0 0 0 0 0 0 0 0 0 0 0 0 0 0 0 0 0 0 0 0 0 0 0 0 0 0 0 0 0 0 0 0
0 0 0 0 0 0 0 0 0 0 0 0 0 0 0 0 0 0 0 0 0 0 0 0 0 0 0 0 0 0 0 0 0 0 0 0 0 0
0 0 0 0 0 0 0 0 0 0 0 0 0 0 0 0 0 0 0 0 0 0 0 0 0 0 0 0 0 0 0 0 0 0 0 0 0 0
0 0 0 0 0 0 0 0 0 0 0 0 0 0 0 0 0 0 0 0 0 0 0 0 0 0 0 0 0 0 0 0 0 0 0 0 0 0
0 0 0 0 0 0 0 0 0 0 0 0 0 0 0 0 0 0 0 0 0 0 0 0 0 0 0 0 0 0 0 0 0 0 0 0 0 0
0 0 0 0 0 0 0 0 0 0 0 0 0 0 0 0 0 0 0 0 0 0 0 0 0 0 0 0 0 0 0 0 0 0 0 0 0 0
0 0 0 0 0 0 0 0 0 0 0 0 0 0 0 0 0 0 0 0 0 0 0 0 0 0 0 0 0 0 0 0 0 0 0 0 0 0
0 0 0 0 0 0 0 0 0 0 0 0 0 0 0 0 0 0 0 0 0 0 0 0 0 0 0 0 0 0 0 0 0 0 0 0 0 0
0 0 0 0 0 0 0 0 0 0 0 0 0 0 0 0 0 0 0 0 0 0 0 0 0 0 0 0 0 0 0 0 0 0 0 0 0 0
0 0 0 0 0 0 0 0 0 0 0 0 0 0 0 0 0 0 0 0 0 0 0 0 0 0 0 0 0 0 0 0 0 0 0 0 0 0
0 0 0 0 0 0 0 0 0 0 0 0 0 0 0 0 0 0 0 0 0 0 0 0 0 0 0 0 0 0 0 0 0 0 0 0 0 0
Wind_Speed
3 4 3 3 2 2 2 3 4 5 6 3 2 3 3 3 5 4 5 8 10 11 12 12 12 11 12 13 13 13 14 14 14 14 15 15 15 15
2 3 2 1 1 1 2 2 3 4 6 3 3 3 3 4 5 5 6 9 10 11 11 11 11 12 12 12 13 13 13 13 14 15 16 16 16 16
2 3 3 2 2 2 2 3 3 3 5 4 3 3 4 4 4 4 5 6 6 10 11 11 11 11 11 12 13 13 12 13 13 14 15 16 16 16
3 3 3 2 2 2 2 3 3 3 4 6 4 3 5 5 5 5 5 5 6 9 11 11 11 11 11 11 12 12 13 13 13 14 15 15 15 15
3 3 3 3 3 3 3 3 3 3 3 4 5 4 4 4 4 5 5 5 6 7 9 10 10 11 11 11 11 12 12 13 13 13 14 15 14 14
2 3 3 4 4 4 3 3 3 3 3 3 4 4 4 3 3 4 5 4 5 5 7 7 10 11 12 12 11 11 12 12 13 13 13 13 13 13
1 2 2 3 3 3 3 2 3 3 3 3 4 4 4 3 3 3 5 5 5 4 5 5 5 6 6 9 10 11 11 12 12 13 12 12 11 11
1 2 2 2 2 3 4 4 4 4 4 4 4 5 5 5 4 4 4 5 6 2 4 6 4 6 5 5 9 10 11 11 11 11 10 10 10 10
2 2 2 2 3 3 3 5 5 7 7 6 6 6 6 6 5 5 5 6 7 4 4 7 5 6 5 7 10 10 11 11 11 10 10 10 9 8
3 3 3 4 4 3 3 3 4 5 6 5 6 6 6 5 6 6 7 7 6 4 4 6 5 5 6 5 9 10 10 11 10 9 9 8 8 7
3 3 3 4 5 4 3 3 5 5 5 6 7 7 7 7 7 4 4 4 6 5 3 4 4 4 5 5 6 9 10 10 10 10 9 8 7 7
2 3 4 5 5 4 3 4 5 5 4 5 5 5 5 5 6 5 5 5 5 5 3 3 4 3 4 4 4 4 6 9 10 9 9 8 7 4
2 3 3 5 5 5 4 4 5 5 3 4 4 4 3 3 4 4 4 4 5 5 3 2 3 3 4 5 4 4 4 4 5 6 7 8 7 5
3 3 3 4 4 4 3 4 5 4 3 3 3 3 3 3 4 4 5 5 6 7 6 4 4 4 3 4 4 3 3 3 3 3 3 6 7 7
3 4 5 4 3 3 3 4 3 2 2 3 3 4 4 4 4 4 4 4 5 5 5 5 4 4 4 4 4 3 3 3 3 3 3 3 3 3
3 4 4 4 3 3 3 2 2 2 3 3 4 3 3 3 3 3 3 3 3 4 4 4 4 4 4 4 3 4 3 3 2 2 2 2 2 2
4 2 2 2 2 2 2 2 2 2 2 3 3 3 3 3 3 3 3 3 3 4 4 3 3 2 3 2 3 3 3 2 2 2 1 1 1 2
3 2 3 3 3 3 3 3 3 3 3 3 3 3 3 3 3 3 2 3 3 3 4 3 2 2 2 2 2 2 2 2 2 1 1 1 1 1
2 2 3 3 3 3 3 3 3 3 3 3 3 3 3 3 3 3 3 3 3 3 3 2 2 1 1 2 3 2 1 1 1 0 0 1 1 1
2 3 3 3 3 3 3 3 3 3 3 3 3 3 3 3 3 3 3 3 3 3 3 2 2 1 2 2 2 2 2 0 0 0 1 2 2 3
3 3 3 3 3 4 4 3 3 3 3 3 3 3 3 3 3 3 3 4 3 2 3 3 3 3 1 1 1 2 2 4 2 1 1 2 2 2
3 3 4 4 4 4 3 3 3 3 3 3 3 3 3 3 3 4 3 2 2 2 2 2 2 2 2 1 1 1 2 3 5 7 6 4 2 2
4 4 4 4 3 3 3 3 3 3 3 3 3 3 2 2 3 2 2 2 2 2 1 1 2 2 2 2 2 2 3 3 3 4 5 7 7 7
Wind_Direction
232 224 223 225 210 216 226 220 222 243 246 235 233 228 246 251 270 257 262 271 273 272 272 276 278 278 277 276 277 277 276 274 271 266 264 263 259 258
230 218 220 221 205 216 224 240 239 242 256 251 244 252 250 269 276 261 261 281 272 273 276 277 276 276 275 277 276 276 276 275 272 266 265 263 259 257
234 215 215 203 201 223 226 231 239 239 256 268 265 266 256 260 267 259 265 260 262 272 276 277 277 277 276 276 277 276 277 277 274 269 265 263 261 258
237 220 222 215 213 222 224 234 241 243 249 267 274 265 256 251 250 260 271 275 264 271 271 275 278 278 277 277 278 277 275 275 276 272 266 265 264 260
229 221 222 214 225 233 232 236 245 257 253 254 267 268 263 257 260 266 268 267 274 271 269 271 277 280 278 277 278 278 277 274 274 276 270 263 262 260
237 232 232 226 225 225 230 232 239 251 258 263 271 270 263 256 249 261 274 266 269 275 274 277 278 277 276 277 278 276 275 274 271 272 273 267 260 255
270 252 246 253 258 254 256 246 240 244 254 259 270 279 273 266 262 265 275 284 271 258 267 270 268 262 262 270 275 274 273 272 271 269 270 268 259 253
279 291 274 249 271 285 285 284 276 255 251 254 261 267 278 278 276 276 280 284 277 241 265 272 259 262 264 258 275 281 276 271 270 270 267 264 258 252
259 261 274 272 267 248 272 288 283 279 268 258 260 262 267 270 271 273 269 270 271 270 265 266 257 259 264 270 277 279 279 274 270 269 264 257 255 253
276 261 253 261 261 266 257 272 271 272 271 259 251 257 261 266 260 259 268 276 276 262 240 260 264 265 273 266 271 277 278 278 273 266 263 257 253 256
279 277 268 259 278 291 271 270 279 277 281 281 281 282 283 282 283 273 270 275 279 270 234 253 267 278 273 262 267 273 275 275 274 268 258 253 250 248
292 286 282 281 287 293 262 255 265 276 282 286 286 291 277 267 273 257 250 256 273 271 238 245 264 285 284 263 258 260 263 269 271 266 257 251 244 236
298 296 288 301 298 297 288 265 273 289 275 273 281 283 279 270 262 261 258 250 258 264 250 250 261 263 261 280 271 254 256 265 256 254 254 249 239 226
294 299 300 307 302 302 300 309 315 305 279 275 276 275 281 283 281 275 272 266 255 257 256 243 246 247 257 270 276 273 262 258 254 249 246 245 238 227
300 307 313 315 311 298 306 323 324 299 288 284 281 283 283 280 283 288 288 284 282 270 256 252 247 240 238 249 264 265 274 270 253 245 239 232 229 213
306 306 315 317 319 321 319 306 297 292 296 290 296 294 296 295 294 299 299 302 300 298 288 270 259 236 236 250 247 257 255 252 258 270 257 244 221 205
316 317 317 315 316 313 310 304 299 301 298 298 299 301 301 299 298 304 299 299 293 293 303 308 307 290 251 239 257 255 259 268 261 252 244 238 217 194
328 308 306 301 289 290 293 297 290 294 297 295 296 295 296 297 300 304 299 296 298 302 305 306 321 339 339 321 291 258 266 273 282 277 220 198 199 165
325 301 296 295 291 284 279 279 280 283 283 284 286 288 291 294 296 296 299 302 302 303 303 304 314 314 300 304 322 338 264 282 312 347 34 95 163 152
305 291 286 285 285 282 279 280 280 283 283 285 287 286 289 292 294 292 287 296 301 307 310 309 301 299 265 257 289 326 359 46 182 151 78 62 69 87
295 290 287 283 280 279 280 280 278 277 280 283 281 285 287 292 291 288 286 301 310 304 303 302 302 329 354 55 37 7 12 24 38 94 125 104 91 98
286 285 288 288 284 281 280 276 276 278 277 272 276 278 282 284 285 286 284 291 301 308 314 320 339 10 49 81 77 46 32 30 37 49 56 66 122 149
283 284 284 285 283 282 279 279 275 272 271 271 272 275 278 285 287 287 291 297 314 323 336 353 7 22 38 84 90 80 70 62 57 59 47 43 61 77